SCP
0 0 0 0 0 0 0 0 0 0 0 0 0 0 0 0 0 0 0 0 0 0 0 0 0 0 0 0 0 0 0 0 0 0 0 0 0 0 0 0 0 0 0
0 0 0 0 0 0 0 0 0 0 0 0 0 0 0 0 0 0 0 0 0 0 0 0 0 0 0 0 0 0 0 0 0 0 0 0 0 0 0 0 0 0 0
0 0 0 0 0 0 0 0 0 0 0 0 0 0 0 0 0 0 0 0 0 0 0 0 0 0 0 0 0 0 0 0 0 0 0 0 0 0 0 0 0 0 0
0 0 0 0 0 0 0 0 0 0 0 0 0 0 0 0 0 0 0 0 0 0 0 0 0 0 0 0 0 0 0 0 0 0 0 0 0 0 0 0 0 0 0
0 0 0 0 0 0 0 0 0 0 0 0 0 0 0 0 0 0 0 0 0 0 0 0 0 0 0 0 0 0 0 0 0 0 0 0 0 0 0 0 0 0 0
0 0 0 0 0 0 0 0 0 0 0 0 0 0 0 0 0 0 0 0 0 0 0 0 0 0 0 0 0 0 0 0 0 0 0 0 0 0 0 0 0 0 0
0 0 0 0 0 0 0 0 0 0 0 0 0 0 0 0 0 0 0 0 0 0 0 0 0 0 0 0 0 0 0 0 0 0 0 0 0 0 0 0 0 0 0
0 0 0 0 0 0 0 0 0 0 0 0 0 0 0 0 0 0 0 0 0 0 0 0 0 0 0 0 0 0 0 0 0 0 0 0 0 0 0 0 0 0 0
0 0 0 0 0 0 0 0 0 0 0 0 0 0 0 0 0 0 0 0 0 0 0 0 0 0 0 0 0 0 0 0 0 0 0 0 0 0 0 0 0 0 0
0 0 0 0 0 0 0 0 0 0 0 0 0 0 0 0 0 0 0 0 0 0 0 0 0 0 0 0 0 0 0 0 0 0 0 0 0 0 0 0 0 0 0
0 0 0 0 0 0 0 0 0 0 0 0 0 0 0 0 0 0 0 0 0 0 0 0 0 0 0 0 0 0 0 0 0 0 0 0 0 0 0 0 0 0 0
0 0 0 0 0 0 0 0 0 0 0 0 0 0 0 0 0 0 0 0 0 0 0 0 0 0 0 0 0 0 0 0 0 0 0 0 0 0 0 0 0 0 0
0 0 0 0 0 0 0 0 0 0 0 0 0 0 0 0 0 0 0 0 0 0 0 0 0 0 0 0 0 0 0 0 0 0 0 0 0 0 0 0 0 0 0
0 0 0 0 0 0 0 0 0 0 0 0 0 0 0 0 0 0 0 0 0 0 0 0 0 0 0 0 0 0 0 0 0 0 0 0 0 0 0 0 0 0 0
0 0 0 0 0 0 0 0 0 0 0 0 0 0 0 0 0 0 0 0 0 0 0 0 0 0 0 0 0 0 0 0 0 0 0 0 0 0 0 0 0 0 0
0 0 0 0 0 0 0 0 0 0 0 0 0 0 0 0 0 0 0 0 0 0 0 0 0 0 0 0 0 0 0 0 0 0 0 0 0 0 0 0 0 0 0
0 0 0 0 0 0 0 0 0 0 0 0 0 0 0 0 0 0 0 0 0 0 0 0 0 0 0 0 0 0 0 0 0 0 0 0 0 0 0 0 0 0 0
0 0 0 0 0 0 0 0 0 0 0 0 0 0 0 0 0 0 0 0 0 0 0 0 0 0 0 0 0 0 0 0 0 0 0 0 0 0 0 0 0 0 0
0 0 0 0 0 0 0 0 0 0 0 0 0 0 0 0 0 0 0 0 0 0 0 0 0 0 0 0 0 0 0 0 0 0 0 0 0 0 0 0 0 0 0
0 0 0 0 0 0 0 0 0 0 0 0 0 0 0 0 0 0 0 0 0 0 0 0 0 0 0 0 0 0 0 0 0 0 0 0 0 0 0 0 0 0 0
0 0 0 0 0 0 0 0 0 0 0 0 0 0 0 0 0 0 0 0 0 0 0 0 0 0 0 0 0 0 0 0 0 0 0 0 0 0 0 0 0 0 0
0 0 0 0 0 0 0 0 0 0 0 0 0 0 0 0 0 0 0 0 0 0 0 0 0 0 0 0 0 0 0 0 0 0 0 0 0 0 0 0 0 0 0
0 0 0 0 0 0 0 0 0 0 0 0 0 0 0 0 0 0 0 0 0 0 0 0 0 0 0 0 0 0 0 0 0 0 0 0 0 0 0 0 0 0 0
0 0 0 0 0 0 0 0 0 0 0 0 0 0 0 0 0 0 0 0 0 0 0 0 0 0 0 0 0 0 0 0 0 0 0 0 0 0 0 0 0 0 0
0 0 0 0 0 0 0 0 0 0 0 0 0 0 0 0 0 0 0 0 0 0 0 0 0 0 0 0 0 0 0 0 0 0 0 0 0 0 0 0 0 0 0
0 0 0 0 0 0 0 0 0 0 0 0 0 0 0 0 0 0 0 0 0 0 0 0 0 0 0 0 0 0 0 0 0 0 0 0 0 0 0 0 0 0 0
Wind_Speed_500mb
27 26 25 24 21 19 16 14 13 12 11 10 10 11 12 16 13 16 21 22 19 20 24 26 25 25 27 26 24 23 21 18 9 9 9 8 7 6 2 5 8 11 14
29 29 28 26 24 22 18 16 15 13 13 15 14 14 13 21 18 20 24 25 26 26 28 21 23 25 24 27 28 27 25 25 17 14 12 13 15 9 10 7 8 10 13
32 30 30 29 28 27 25 23 22 20 17 18 16 16 17 18 21 20 21 20 18 19 18 18 20 21 23 25 28 30 28 26 25 21 20 19 19 16 16 12 11 12 14
38 37 35 33 31 31 28 27 21 21 21 18 17 19 20 21 26 24 23 22 22 23 21 19 20 20 22 24 26 32 34 32 29 24 22 24 24 22 22 18 17 14 16
44 41 39 36 35 35 33 30 27 26 24 23 21 25 30 28 30 35 31 31 31 31 31 35 28 28 27 26 28 31 32 33 33 28 26 26 25 27 22 22 21 19 17
50 49 45 43 41 41 40 37 35 30 27 25 35 34 32 32 34 40 36 34 31 34 37 40 44 39 38 34 34 32 31 32 34 33 29 27 29 31 28 27 24 22 20
54 53 52 50 49 49 46 41 38 35 36 32 36 37 39 38 40 42 39 29 27 31 37 43 46 48 47 42 41 38 34 35 40 42 39 37 31 33 31 30 27 25 24
54 56 57 56 55 54 51 47 45 42 39 38 39 23 22 27 37 22 21 27 29 35 44 46 48 49 49 51 50 46 48 57 49 43 46 39 34 34 33 32 31 30 29
63 59 58 59 60 57 56 53 53 52 47 43 45 34 17 15 14 23 24 38 32 40 46 53 56 53 53 55 65 62 57 59 58 45 51 46 40 37 34 34 35 32 36
71 69 63 61 62 62 60 59 57 56 51 46 46 51 53 49 26 31 34 35 40 52 52 54 61 62 63 66 65 58 60 64 59 53 51 44 49 45 43 42 42 40 39
74 75 71 68 67 65 63 62 62 61 60 60 59 54 55 54 52 58 52 50 42 49 62 63 66 67 66 62 56 54 52 57 57 61 57 55 62 50 46 45 45 43 42
76 76 78 76 75 74 73 69 65 63 61 62 64 60 56 51 42 47 53 60 63 63 67 66 66 68 62 59 53 50 49 54 55 60 60 62 59 53 50 50 50 49 47
77 78 77 81 80 77 75 74 73 72 71 69 68 69 68 64 59 59 58 63 68 72 69 73 66 61 59 50 46 46 48 53 55 56 62 59 57 56 58 54 54 51 49
73 70 69 68 68 68 69 71 74 76 76 75 74 70 66 62 59 62 65 65 69 67 71 61 57 55 50 50 44 48 46 50 48 54 59 60 57 59 54 59 57 56 54
73 71 68 65 64 65 67 67 71 73 74 73 72 66 63 60 59 59 60 61 62 49 48 54 47 51 51 47 49 46 44 46 45 47 52 57 58 55 54 58 56 56 55
78 73 69 64 63 64 67 69 71 69 69 69 65 59 57 58 57 55 54 54 53 58 59 58 58 58 46 49 51 44 46 49 47 45 48 52 54 53 59 56 57 57 56
80 75 70 67 65 66 67 68 70 69 68 64 60 56 61 60 58 57 53 48 47 52 56 61 57 48 44 52 47 43 44 44 44 39 41 45 48 53 57 59 61 63 62
81 78 76 72 68 68 66 68 70 71 67 63 59 63 62 59 57 55 48 51 56 47 49 47 48 44 47 47 43 40 35 37 37 34 35 40 45 51 54 58 62 66 70
78 77 77 75 72 71 70 70 69 63 60 61 63 66 63 57 57 51 53 51 48 45 43 47 46 43 37 40 40 32 35 35 34 33 37 39 43 46 51 55 61 67 72
71 70 71 71 70 69 66 62 61 60 63 65 63 63 54 57 56 59 53 51 51 48 45 44 40 34 37 40 35 36 32 33 34 34 37 39 39 43 49 54 60 65 68
67 67 68 64 63 61 60 61 61 64 64 60 58 54 53 56 56 59 59 55 54 51 41 42 41 41 33 29 32 31 32 34 35 38 38 38 37 39 42 48 52 53 59
68 68 68 68 66 64 63 64 62 63 60 56 58 58 57 53 57 58 59 48 41 38 39 44 32 31 27 27 28 28 31 31 40 43 41 40 46 47 48 48 51 52 54
61 61 60 58 57 57 58 58 58 53 52 54 58 56 54 50 48 46 39 38 39 37 36 33 31 28 27 25 26 26 30 34 39 43 53 54 47 50 47 46 45 46 49
56 57 58 58 58 58 59 59 57 58 57 53 49 49 48 40 39 33 32 34 34 35 32 29 30 28 26 26 27 29 32 36 39 39 46 51 49 45 45 47 48 45 43
61 61 60 61 60 59 57 55 50 47 48 50 50 48 43 38 34 33 32 32 32 33 32 31 30 27 24 26 26 28 32 36 38 35 43 46 47 62 57 42 35 33 37
64 65 66 65 60 55 53 51 49 46 47 48 47 45 38 35 37 34 32 31 31 32 28 25 22 21 21 22 23 28 31 33 33 36 33 44 52 48 41 38 44 55 53
Wind_Direction_500mb
218 212 212 213 216 217 220 231 233 258 269 267 276 297 308 308 308 315 321 320 326 314 303 296 307 315 320 324 332 334 330 330 295 239 261 286 265 297 347 352 11 14 10
221 220 221 220 221 220 222 224 240 249 252 249 265 264 280 288 303 309 315 318 320 316 320 301 307 311 307 310 319 323 323 322 310 270 263 258 263 265 273 296 328 348 353
225 222 223 226 228 229 228 234 239 240 239 247 258 254 271 296 302 328 325 325 336 339 344 329 323 309 301 301 305 313 314 315 306 290 265 258 262 270 274 280 297 321 336
227 227 225 227 232 234 237 241 240 241 243 246 254 262 268 285 291 306 309 312 317 315 322 317 315 311 302 294 293 301 307 307 306 291 269 257 258 257 264 269 279 292 312
231 231 232 232 232 237 239 236 237 239 243 251 250 252 267 281 289 292 294 297 300 301 295 300 299 298 299 299 296 296 294 295 303 294 272 255 257 259 266 265 277 284 296
234 233 234 235 234 237 240 244 243 244 239 245 250 268 274 283 287 289 294 287 293 294 291 283 292 295 296 297 294 283 263 265 281 284 268 256 254 259 256 264 271 278 286
238 237 236 236 237 240 244 245 248 246 243 239 255 270 271 275 281 281 293 285 284 293 294 292 290 294 294 295 291 282 271 264 261 262 257 280 250 254 263 266 268 275 283
240 240 239 240 241 243 244 245 245 246 243 243 253 260 281 286 292 278 287 287 287 285 289 294 293 291 292 291 289 279 280 292 265 248 254 257 253 253 258 266 272 279 286
242 242 242 242 244 246 248 249 248 249 246 247 253 247 257 256 285 283 277 296 290 288 290 297 300 302 301 299 298 294 310 289 277 248 250 253 252 257 256 260 264 267 272
242 245 243 243 245 246 248 250 252 254 254 245 255 253 257 256 265 284 286 287 281 287 296 301 301 302 306 304 312 302 294 289 291 270 254 242 249 249 254 251 255 255 261
245 245 246 245 246 247 250 250 252 252 253 256 255 256 259 266 266 263 271 279 284 287 292 294 301 305 309 311 312 297 295 289 286 277 261 253 245 247 252 257 258 261 261
248 245 243 244 246 248 249 252 254 256 256 259 260 257 255 254 261 259 268 277 283 286 288 295 298 302 308 305 305 298 291 283 276 276 266 270 264 252 250 255 255 258 263
247 248 244 244 246 249 252 254 255 256 257 258 260 260 261 258 258 261 265 270 277 284 285 296 303 303 303 305 306 296 286 282 279 278 274 269 267 253 255 258 259 260 266
249 249 251 250 250 250 251 252 253 254 255 256 258 259 261 262 264 266 270 275 275 277 286 288 296 301 308 304 298 296 288 282 286 282 276 270 265 258 259 260 263 264 266
248 249 251 250 248 247 247 248 250 253 254 256 258 261 262 264 268 270 271 272 276 276 284 293 295 301 304 304 301 294 285 285 284 283 277 273 271 265 266 265 271 267 267
249 246 248 249 247 245 246 246 249 253 254 256 257 257 262 266 267 269 271 272 274 278 278 287 288 296 298 301 299 295 288 285 288 283 281 277 274 267 269 272 272 268 269
246 249 249 247 246 245 245 248 250 252 252 252 254 258 264 268 267 267 269 271 274 271 276 274 283 289 296 301 296 293 285 284 283 282 278 277 273 272 274 273 273 271 271
248 249 248 247 246 247 246 247 248 249 252 252 255 261 262 262 263 265 266 268 271 269 268 274 277 280 289 293 291 286 288 286 287 286 283 281 279 278 276 276 276 275 275
245 245 245 246 248 247 246 247 249 252 252 254 258 259 258 258 259 259 260 264 269 263 263 272 272 280 285 290 290 281 282 290 288 286 287 286 283 280 282 283 283 280 279
242 243 245 246 248 249 248 248 247 250 252 252 254 254 248 255 258 261 266 261 259 260 260 260 262 273 281 283 280 282 287 285 288 293 293 290 287 288 288 290 288 285 282
244 243 245 247 246 246 244 244 245 246 248 246 250 250 255 258 263 263 267 267 264 265 258 251 266 272 266 265 272 282 286 292 295 297 298 300 297 297 297 297 298 296 290
240 241 241 242 243 243 243 242 241 243 246 242 250 252 252 256 260 262 264 256 259 259 259 257 250 246 250 260 267 278 291 294 301 303 307 308 305 304 308 307 304 302 297
239 237 237 238 239 239 239 238 235 238 238 240 250 254 252 255 259 256 249 239 238 238 239 233 239 244 248 253 265 280 290 294 298 304 304 307 313 312 313 311 311 309 303
235 237 238 238 239 239 240 240 238 236 238 239 240 243 246 249 246 241 238 234 223 227 236 241 246 246 249 259 269 282 284 292 295 298 300 308 320 318 317 317 314 312 309
238 238 238 236 236 236 237 238 235 229 228 231 235 235 233 235 238 232 237 235 232 232 237 241 244 247 256 271 276 281 288 296 304 308 313 313 321 318 322 326 321 314 311
238 236 234 232 231 229 229 225 225 226 227 225 223 223 225 228 228 229 234 241 238 234 232 238 243 249 263 275 282 290 299 302 305 316 316 313 317 326 327 317 313 321 326
Wind_Speed_850mb
27 26 25 24 21 19 16 14 13 12 11 10 10 11 12 16 13 16 21 22 19 20 24 26 25 25 27 26 24 23 21 18 9 9 9 8 7 6 2 5 8 11 14
29 29 28 26 24 22 18 16 15 13 13 15 14 14 13 21 18 20 24 25 26 26 28 21 23 25 24 27 28 27 25 25 17 14 12 13 15 9 10 7 8 10 13
32 30 30 29 28 27 25 23 22 20 17 18 16 16 17 18 21 20 21 20 18 19 18 18 20 21 23 25 28 30 28 26 25 21 20 19 19 16 16 12 11 12 14
38 37 35 33 31 31 28 27 21 21 21 18 17 19 20 21 26 24 23 22 22 23 21 19 20 20 22 24 26 32 34 32 29 24 22 24 24 22 22 18 17 14 16
44 41 39 36 35 35 33 30 27 26 24 23 21 25 30 28 30 35 31 31 31 31 31 35 28 28 27 26 28 31 32 33 33 28 26 26 25 27 22 22 21 19 17
50 49 45 43 41 41 40 37 35 30 27 25 35 34 32 32 34 40 36 34 31 34 37 40 44 39 38 34 34 32 31 32 34 33 29 27 29 31 28 27 24 22 20
54 53 52 50 49 49 46 41 38 35 36 32 36 37 39 38 40 42 39 29 27 31 37 43 46 48 47 42 41 38 34 35 40 42 39 37 31 33 31 30 27 25 24
54 56 57 56 55 54 51 47 45 42 39 38 39 23 22 27 37 22 21 27 29 35 44 46 48 49 49 51 50 46 48 57 49 43 46 39 34 34 33 32 31 30 29
63 59 58 59 60 57 56 53 53 52 47 43 45 34 17 15 14 23 24 38 32 40 46 53 56 53 53 55 65 62 57 59 58 45 51 46 40 37 34 34 35 32 36
71 69 63 61 62 62 60 59 57 56 51 46 46 51 53 49 26 31 34 35 40 52 52 54 61 62 63 66 65 58 60 64 59 53 51 44 49 45 43 42 42 40 39
74 75 71 68 67 65 63 62 62 61 60 60 59 54 55 54 52 58 52 50 42 49 62 63 66 67 66 62 56 54 52 57 57 61 57 55 62 50 46 45 45 43 42
76 76 78 76 75 74 73 69 65 63 61 62 64 60 56 51 42 47 53 60 63 63 67 66 66 68 62 59 53 50 49 54 55 60 60 62 59 53 50 50 50 49 47
77 78 77 81 80 77 75 74 73 72 71 69 68 69 68 64 59 59 58 63 68 72 69 73 66 61 59 50 46 46 48 53 55 56 62 59 57 56 58 54 54 51 49
73 70 69 68 68 68 69 71 74 76 76 75 74 70 66 62 59 62 65 65 69 67 71 61 57 55 50 50 44 48 46 50 48 54 59 60 57 59 54 59 57 56 54
73 71 68 65 64 65 67 67 71 73 74 73 72 66 63 60 59 59 60 61 62 49 48 54 47 51 51 47 49 46 44 46 45 47 52 57 58 55 54 58 56 56 55
78 73 69 64 63 64 67 69 71 69 69 69 65 59 57 58 57 55 54 54 53 58 59 58 58 58 46 49 51 44 46 49 47 45 48 52 54 53 59 56 57 57 56
80 75 70 67 65 66 67 68 70 69 68 64 60 56 61 60 58 57 53 48 47 52 56 61 57 48 44 52 47 43 44 44 44 39 41 45 48 53 57 59 61 63 62
81 78 76 72 68 68 66 68 70 71 67 63 59 63 62 59 57 55 48 51 56 47 49 47 48 44 47 47 43 40 35 37 37 34 35 40 45 51 54 58 62 66 70
78 77 77 75 72 71 70 70 69 63 60 61 63 66 63 57 57 51 53 51 48 45 43 47 46 43 37 40 40 32 35 35 34 33 37 39 43 46 51 55 61 67 72
71 70 71 71 70 69 66 62 61 60 63 65 63 63 54 57 56 59 53 51 51 48 45 44 40 34 37 40 35 36 32 33 34 34 37 39 39 43 49 54 60 65 68
67 67 68 64 63 61 60 61 61 64 64 60 58 54 53 56 56 59 59 55 54 51 41 42 41 41 33 29 32 31 32 34 35 38 38 38 37 39 42 48 52 53 59
68 68 68 68 66 64 63 64 62 63 60 56 58 58 57 53 57 58 59 48 41 38 39 44 32 31 27 27 28 28 31 31 40 43 41 40 46 47 48 48 51 52 54
61 61 60 58 57 57 58 58 58 53 52 54 58 56 54 50 48 46 39 38 39 37 36 33 31 28 27 25 26 26 30 34 39 43 53 54 47 50 47 46 45 46 49
56 57 58 58 58 58 59 59 57 58 57 53 49 49 48 40 39 33 32 34 34 35 32 29 30 28 26 26 27 29 32 36 39 39 46 51 49 45 45 47 48 45 43
61 61 60 61 60 59 57 55 50 47 48 50 50 48 43 38 34 33 32 32 32 33 32 31 30 27 24 26 26 28 32 36 38 35 43 46 47 62 57 42 35 33 37
64 65 66 65 60 55 53 51 49 46 47 48 47 45 38 35 37 34 32 31 31 32 28 25 22 21 21 22 23 28 31 33 33 36 33 44 52 48 41 38 44 55 53
Wind_Direction_850mb
218 212 212 213 216 217 220 231 233 258 269 267 276 297 308 308 308 315 321 320 326 314 303 296 307 315 320 324 332 334 330 330 295 239 261 286 265 297 347 352 11 14 10
221 220 221 220 221 220 222 224 240 249 252 249 265 264 280 288 303 309 315 318 320 316 320 301 307 311 307 310 319 323 323 322 310 270 263 258 263 265 273 296 328 348 353
225 222 223 226 228 229 228 234 239 240 239 247 258 254 271 296 302 328 325 325 336 339 344 329 323 309 301 301 305 313 314 315 306 290 265 258 262 270 274 280 297 321 336
227 227 225 227 232 234 237 241 240 241 243 246 254 262 268 285 291 306 309 312 317 315 322 317 315 311 302 294 293 301 307 307 306 291 269 257 258 257 264 269 279 292 312
231 231 232 232 232 237 239 236 237 239 243 251 250 252 267 281 289 292 294 297 300 301 295 300 299 298 299 299 296 296 294 295 303 294 272 255 257 259 266 265 277 284 296
234 233 234 235 234 237 240 244 243 244 239 245 250 268 274 283 287 289 294 287 293 294 291 283 292 295 296 297 294 283 263 265 281 284 268 256 254 259 256 264 271 278 286
238 237 236 236 237 240 244 245 248 246 243 239 255 270 271 275 281 281 293 285 284 293 294 292 290 294 294 295 291 282 271 264 261 262 257 280 250 254 263 266 268 275 283
240 240 239 240 241 243 244 245 245 246 243 243 253 260 281 286 292 278 287 287 287 285 289 294 293 291 292 291 289 279 280 292 265 248 254 257 253 253 258 266 272 279 286
242 242 242 242 244 246 248 249 248 249 246 247 253 247 257 256 285 283 277 296 290 288 290 297 300 302 301 299 298 294 310 289 277 248 250 253 252 257 256 260 264 267 272
242 245 243 243 245 246 248 250 252 254 254 245 255 253 257 256 265 284 286 287 281 287 296 301 301 302 306 304 312 302 294 289 291 270 254 242 249 249 254 251 255 255 261
245 245 246 245 246 247 250 250 252 252 253 256 255 256 259 266 266 263 271 279 284 287 292 294 301 305 309 311 312 297 295 289 286 277 261 253 245 247 252 257 258 261 261
248 245 243 244 246 248 249 252 254 256 256 259 260 257 255 254 261 259 268 277 283 286 288 295 298 302 308 305 305 298 291 283 276 276 266 270 264 252 250 255 255 258 263
247 248 244 244 246 249 252 254 255 256 257 258 260 260 261 258 258 261 265 270 277 284 285 296 303 303 303 305 306 296 286 282 279 278 274 269 267 253 255 258 259 260 266
249 249 251 250 250 250 251 252 253 254 255 256 258 259 261 262 264 266 270 275 275 277 286 288 296 301 308 304 298 296 288 282 286 282 276 270 265 258 259 260 263 264 266
248 249 251 250 248 247 247 248 250 253 254 256 258 261 262 264 268 270 271 272 276 276 284 293 295 301 304 304 301 294 285 285 284 283 277 273 271 265 266 265 271 267 267
249 246 248 249 247 245 246 246 249 253 254 256 257 257 262 266 267 269 271 272 274 278 278 287 288 296 298 301 299 295 288 285 288 283 281 277 274 267 269 272 272 268 269
246 249 249 247 246 245 245 248 250 252 252 252 254 258 264 268 267 267 269 271 274 271 276 274 283 289 296 301 296 293 285 284 283 282 278 277 273 272 274 273 273 271 271
248 249 248 247 246 247 246 247 248 249 252 252 255 261 262 262 263 265 266 268 271 269 268 274 277 280 289 293 291 286 288 286 287 286 283 281 279 278 276 276 276 275 275
245 245 245 246 248 247 246 247 249 252 252 254 258 259 258 258 259 259 260 264 269 263 263 272 272 280 285 290 290 281 282 290 288 286 287 286 283 280 282 283 283 280 279
242 243 245 246 248 249 248 248 247 250 252 252 254 254 248 255 258 261 266 261 259 260 260 260 262 273 281 283 280 282 287 285 288 293 293 290 287 288 288 290 288 285 282
244 243 245 247 246 246 244 244 245 246 248 246 250 250 255 258 263 263 267 267 264 265 258 251 266 272 266 265 272 282 286 292 295 297 298 300 297 297 297 297 298 296 290
240 241 241 242 243 243 243 242 241 243 246 242 250 252 252 256 260 262 264 256 259 259 259 257 250 246 250 260 267 278 291 294 301 303 307 308 305 304 308 307 304 302 297
239 237 237 238 239 239 239 238 235 238 238 240 250 254 252 255 259 256 249 239 238 238 239 233 239 244 248 253 265 280 290 294 298 304 304 307 313 312 313 311 311 309 303
235 237 238 238 239 239 240 240 238 236 238 239 240 243 246 249 246 241 238 234 223 227 236 241 246 246 249 259 269 282 284 292 295 298 300 308 320 318 317 317 314 312 309
238 238 238 236 236 236 237 238 235 229 228 231 235 235 233 235 238 232 237 235 232 232 237 241 244 247 256 271 276 281 288 296 304 308 313 313 321 318 322 326 321 314 311
238 236 234 232 231 229 229 225 225 226 227 225 223 223 225 228 228 229 234 241 238 234 232 238 243 249 263 275 282 290 299 302 305 316 316 313 317 326 327 317 313 321 326